Home   Weather   Santa Fe   Past weeks

Flag for USA Past Weather in Santa Fe, New Mexico, USA — Yesterday and Last 2 Weeks

Now
33 °F

Broken clouds.


Feels Like: 29 °F
Forecast: 23 / 38 °F
Wind: 5 mph from Northeast

Location: Santa Fe County Municipal Airport

Current Time: Dec 2, 2016 at 10:58:26 am

Latest Report: Dec 2, 2016 at 9:53 am


Visibility: 10 mi

Pressure: 30.08 "Hg (23.05 "Hg at 2132m altitude)

Humidity: 82%

Dew Point: 28 °F

Location of Santa FeLocation

Past Weather in Santa Fe — Graph

°F

Santa Fe Temperature Yesterday

Maximum temperature yesterday: 40 °F (at 1:53 pm)
Minimum temperature yesterday: 18 °F (at 5:53 am)
Average temperature yesterday: 29 °F

High & Low Weather Summary for the Past Weeks

 TemperatureHumidityPressure
High59 °F (Nov 20, 1:53 pm)100% (Nov 28, 11:53 pm)30.54 "Hg (Nov 28, 11:53 pm)
Low12 °F (Nov 30, 4:53 am)10% (Nov 17, 12:53 pm)29.48 "Hg (Nov 28, 1:53 pm)
Average35 °F58%30.04 "Hg
* Reported Nov 17 8:53 am — Dec 2 8:53 am, Santa Fe, Weather by CustomWeather, © 2016

Note: Actual official high and low records may vary slightly from our data, if they occured in-between our weather recording intervals... More about our weather records

Advertising

Santa Fe Weather History for the Previous 24 Hours

Scroll right to see more
 ConditionsComfort  
Time TempWeatherWind HumidityBarometerVisibility
8:53 am
Fri, Dec 2
27 °FMore clouds than sun.5 mph92%30.09 "Hg10 mi
7:53 am30 °FLight snow. Overcast.No wind56%30.04 "Hg1 mi
6:53 am28 °FMostly cloudy.10 mph58%29.98 "Hg10 mi
5:53 am28 °FMostly cloudy.8 mph58%29.97 "Hg10 mi
4:53 am27 °FMostly cloudy.9 mph61%29.96 "Hg10 mi
3:53 am26 °FPassing clouds.10 mph63%29.96 "Hg10 mi
2:53 am25 °FClear.13 mph66%29.93 "Hg10 mi
1:53 am26 °FPassing clouds.13 mph63%29.93 "Hg10 mi
12:53 am25 °FClear.6 mph69%29.95 "Hg10 mi
11:53 pm
Thu, Dec 1
24 °FClear.7 mph68%29.98 "Hg10 mi
10:53 pm25 °FClear.5 mph63%30.00 "Hg10 mi
9:53 pm23 °FClear.5 mph68%30.00 "Hg10 mi
8:53 pm23 °FClear.6 mph72%30.01 "Hg10 mi
7:53 pm28 °FPassing clouds.7 mph53%29.99 "Hg10 mi
6:53 pm35 °FClear.No wind36%29.99 "Hg10 mi
5:53 pm35 °FClear.No wind38%29.97 "Hg10 mi
4:53 pm34 °FClear.No wind40%29.96 "Hg10 mi
3:53 pm37 °FSunny.3 mph36%29.91 "Hg10 mi
2:53 pm39 °FSunny.9 mph31%29.90 "Hg10 mi
1:53 pm40 °FSunny.10 mph27%29.91 "Hg10 mi
12:53 pm39 °FSunny.7 mph31%29.93 "Hg10 mi
11:53 am38 °FSunny.9 mph30%29.96 "Hg10 mi
10:53 am35 °FSunny.8 mph35%30.01 "Hg10 mi
Weather by CustomWeather, © 2016

See weather overviewHow to use our weather pages